period_start,C,m1,H,J0,J1,J2,J3,J4,J5,JA,JB,JC,JD,JJ,JK,JN,#
2015-04-25 00:01:12,0.05,0.42,0.00,23.66,26.92,29.82,4.72,26.24,1011.75,2035.07,3289.71,3195.86,3469.30,349.70,344.97,3.84,0000 0000 0000 0000 000000
2015-04-25 00:06:13,0.04,0.42,0.00,23.61,26.92,29.81,4.74,26.19,1011.75,2035.07,3289.02,3195.12,3468.99,349.92,345.02,3.87,0000 0000 0000 0000 000000
2015-04-25 00:11:15,0.05,0.42,0.00,23.61,26.92,29.86,4.81,26.39,1011.74,2035.12,3288.44,3194.99,3468.62,350.21,345.54,3.90,0000 0000 0000 0000 000000
2015-04-25 00:16:16,0.04,0.42,0.00,23.56,26.92,29.89,4.78,26.19,1011.74,2035.11,3287.89,3194.46,3468.04,350.52,345.64,3.93,0000 0000 0000 0000 000000
2015-04-25 00:21:17,0.04,0.43,0.00,23.59,26.92,29.88,4.72,26.13,1011.73,2035.07,3287.08,3194.00,3467.61,350.06,345.51,3.96,0000 0000 0000 0000 000000
2015-04-25 00:26:19,0.06,0.43,0.00,23.49,26.94,29.85,4.72,26.20,1011.73,2035.06,3286.37,3193.59,3467.02,349.23,344.55,3.99,0000 0000 0000 0000 000000
2015-04-25 00:31:20,0.05,0.43,0.00,23.33,26.95,29.76,4.79,26.27,1011.73,2035.04,3285.68,3193.01,3466.50,349.40,345.04,4.02,0000 0000 0000 0000 000000
2015-04-25 00:39:00,0.07,0.43,0.00,23.13,26.95,29.63,4.81,26.37,1011.73,2035.01,3284.28,3192.03,3465.38,350.25,346.06,4.06,0000 0000 0000 0000 000000
2015-04-25 00:44:01,0.01,0.43,0.00,23.02,26.95,29.61,4.79,26.32,1011.73,2035.02,3283.89,3191.95,3465.01,349.76,345.48,4.09,0000 0000 0000 0000 000000
2015-04-25 00:49:02,0.07,0.43,0.00,22.98,26.95,29.53,4.70,26.18,1011.71,2035.01,3283.08,3191.21,3464.81,349.78,345.81,4.12,0000 0000 0000 0000 000000
2015-04-25 00:54:03,0.04,0.43,0.00,22.93,26.95,29.51,4.74,26.22,1011.65,2035.04,3282.58,3191.00,3464.11,350.36,346.30,4.15,0000 0000 0000 0000 000000
2015-04-25 00:59:04,0.04,0.44,0.00,22.89,26.94,29.49,4.79,26.20,1011.50,2035.06,3281.92,3190.68,3463.99,350.20,346.23,4.18,0000 0000 0000 0000 000000
2015-04-25 01:04:06,0.10,0.44,0.00,22.93,26.92,29.48,4.73,26.27,1011.29,2035.22,3281.09,3190.04,3463.47,350.23,346.13,4.21,0000 0000 0000 0000 000000
2015-04-25 01:09:07,0.04,0.44,0.00,23.22,26.92,29.43,4.75,26.37,1011.26,2035.39,3280.67,3189.92,3463.00,349.88,345.48,4.24,0000 0000 0000 0000 000000
2015-04-25 01:14:08,0.11,0.44,0.00,23.49,26.94,29.41,4.76,26.32,1011.26,2035.59,3279.98,3189.17,3462.30,349.76,345.05,4.27,0000 0000 0000 0000 000000
2015-04-25 01:19:10,0.01,0.44,0.00,23.80,26.96,29.48,4.75,26.39,1011.25,2035.28,3279.06,3188.53,3461.66,350.10,345.09,4.30,0000 0000 0000 0000 000000
2015-04-25 01:24:11,0.06,0.45,0.00,23.70,26.99,29.58,4.80,26.28,1011.25,2035.06,3277.88,3187.72,3460.76,350.58,345.64,4.33,0000 0000 0000 0000 000000
2015-04-25 01:29:13,0.07,0.45,0.00,23.55,27.03,29.63,4.70,26.17,1011.25,2035.00,3276.75,3186.90,3459.80,349.84,345.05,4.36,0000 0000 0000 0000 000000
2015-04-25 01:34:14,0.09,0.45,0.00,23.53,27.07,29.74,4.72,26.21,1011.25,2035.00,3275.66,3185.99,3458.83,350.10,345.38,4.39,0000 0000 0000 0000 000000
2015-04-25 01:39:15,0.11,0.45,0.00,23.46,27.10,29.83,4.77,26.24,1011.25,2034.99,3274.05,3185.00,3457.64,350.15,345.17,4.42,0000 0000 0000 0000 000000
2015-04-25 01:44:16,0.08,0.46,0.00,23.41,27.13,30.03,4.74,26.24,1011.25,2034.96,3272.86,3184.10,3456.81,350.17,345.62,4.45,0000 0000 0000 0000 000000
2015-04-25 01:49:18,0.04,0.46,0.00,23.34,27.15,30.22,4.73,26.30,1011.25,2034.77,3271.80,3183.35,3455.97,349.93,345.42,4.47,0000 0000 0000 0000 000000
2015-04-25 01:54:19,0.03,0.46,0.00,23.47,27.17,30.27,4.75,26.21,1011.25,2034.37,3270.85,3182.75,3455.11,349.83,345.13,4.50,0000 0000 0000 0000 000000
2015-04-25 01:59:21,0.02,0.46,0.00,23.79,27.20,30.21,4.76,26.23,1011.23,2034.13,3269.99,3182.03,3454.54,349.80,344.76,4.53,0000 0000 0000 0000 000000
2015-04-25 02:04:22,0.06,0.46,0.00,23.81,27.22,30.18,4.73,26.19,1010.98,2034.07,3269.07,3181.32,3453.95,349.77,344.60,4.56,0000 0000 0000 0000 000000
2015-04-25 02:09:24,0.05,0.46,0.00,23.68,27.23,30.20,4.75,26.23,1010.82,2034.02,3268.11,3180.85,3453.11,350.33,345.39,4.59,0000 0000 0000 0000 000000
2015-04-25 02:14:25,0.08,0.47,0.00,23.53,27.25,30.25,4.80,26.42,1010.88,2034.00,3267.18,3180.07,3452.43,350.50,345.84,4.62,0000 0000 0000 0000 000000
2015-04-25 02:19:26,0.08,0.47,0.00,23.52,27.26,30.24,4.72,26.14,1010.81,2034.00,3266.16,3179.40,3451.78,350.18,345.45,4.65,0000 0000 0000 0000 000000
2015-04-25 02:24:28,0.05,0.47,0.00,23.49,27.27,30.22,4.76,26.23,1010.78,2034.00,3265.27,3178.96,3451.02,350.54,345.65,4.68,0000 0000 0000 0000 000000
2015-04-25 02:29:29,0.08,0.47,0.00,23.44,27.27,30.22,4.81,26.23,1010.77,2034.00,3264.48,3178.20,3450.43,350.42,345.60,4.71,0000 0000 0000 0000 000000
2015-04-25 02:34:30,0.02,0.47,0.00,23.42,27.27,30.21,4.71,26.25,1010.77,2033.99,3263.78,3177.89,3449.94,349.92,345.13,4.74,0000 0000 0000 0000 000000
2015-04-25 02:39:31,0.08,0.48,0.00,23.41,27.27,30.18,4.70,26.33,1010.77,2033.99,3262.90,3177.06,3449.09,349.77,344.90,4.77,0000 0000 0000 0000 000000
2015-04-25 02:44:32,0.06,0.48,0.00,23.40,27.27,30.19,4.74,26.26,1010.76,2033.98,3262.07,3176.67,3448.68,349.85,345.21,4.80,0000 0000 0000 0000 000000
2015-04-25 02:49:33,0.05,0.48,0.00,23.40,27.26,30.17,4.74,26.29,1010.76,2033.99,3261.31,3176.03,3448.02,349.54,344.77,4.83,0000 0000 0000 0000 000000
2015-04-25 02:54:34,0.06,0.48,0.00,23.40,27.25,30.15,4.73,26.24,1010.76,2033.99,3260.47,3175.75,3447.51,349.31,344.43,4.86,0000 0000 0000 0000 000000
2015-04-25 02:59:36,0.05,0.48,0.00,23.51,27.25,30.11,4.76,26.39,1010.76,2033.99,3259.73,3175.02,3446.94,350.23,345.40,4.89,0000 0000 0000 0000 000000
2015-04-25 03:04:37,0.10,0.49,0.00,23.82,27.25,30.07,4.68,26.27,1010.76,2033.99,3258.37,3174.15,3446.09,349.81,344.54,4.91,0000 0000 0000 0000 000000
2015-04-25 03:09:38,0.06,0.49,0.00,23.84,27.25,30.10,4.73,26.33,1010.76,2033.99,3257.56,3173.72,3445.35,350.32,344.94,4.94,0000 0000 0000 0000 000000
2015-04-25 03:14:39,0.04,0.49,0.00,23.69,27.26,30.13,4.79,26.26,1010.76,2033.99,3256.74,3173.04,3444.93,350.07,344.95,4.97,0000 0000 0000 0000 000000
2015-04-25 03:19:40,0.08,0.49,0.00,23.67,27.27,30.12,4.78,26.22,1010.76,2033.98,3255.86,3172.46,3444.11,350.40,345.41,5.00,0000 0000 0000 0000 000000
2015-04-25 03:24:42,0.05,0.49,0.00,23.66,27.27,30.13,4.78,26.27,1010.74,2033.98,3254.94,3171.98,3443.63,349.90,344.79,5.03,0000 0000 0000 0000 000000
2015-04-25 03:29:43,0.07,0.50,0.00,23.62,27.27,30.14,4.73,26.32,1010.75,2033.97,3254.05,3171.20,3443.00,350.04,345.00,5.06,0000 0000 0000 0000 000000
2015-04-25 03:34:44,0.05,0.50,0.00,23.61,27.27,30.16,4.69,26.31,1010.76,2033.98,3253.20,3170.93,3442.25,350.45,345.43,5.09,0000 0000 0000 0000 000000
2015-04-25 03:39:46,0.08,0.50,0.00,23.57,27.27,30.17,4.74,26.34,1010.74,2033.99,3252.25,3170.10,3441.75,350.22,344.93,5.12,0000 0000 0000 0000 000000
2015-04-25 03:44:47,0.06,0.50,0.00,23.56,27.26,30.15,4.75,26.16,1010.65,2033.99,3251.57,3169.76,3441.05,350.35,345.27,5.15,0000 0000 0000 0000 000000
2015-04-25 03:49:48,0.05,0.50,0.00,23.57,27.25,30.14,4.67,26.05,1010.57,2033.99,3250.72,3169.07,3440.62,349.68,344.66,5.18,0000 0000 0000 0000 000000
2015-04-25 03:54:49,0.06,0.50,0.00,23.56,27.25,30.13,4.64,26.27,1010.47,2033.99,3249.79,3168.65,3440.00,349.39,344.27,5.21,0000 0000 0000 0000 000000
2015-04-25 03:59:50,0.06,0.51,0.00,23.55,27.25,30.12,4.72,26.18,1010.33,2033.99,3248.95,3168.02,3439.25,349.52,344.52,5.24,0000 0000 0000 0000 000000
2015-04-25 04:04:52,0.07,0.51,0.00,23.55,27.25,30.12,4.68,26.23,1010.31,2033.99,3248.06,3167.48,3438.76,349.73,344.62,5.27,0000 0000 0000 0000 000000
2015-04-25 04:09:53,0.05,0.51,0.00,23.55,27.25,30.10,4.78,26.31,1010.33,2033.99,3247.08,3166.91,3438.02,350.30,345.30,5.30,0000 0000 0000 0000 000000
2015-04-25 04:14:54,0.09,0.51,0.00,23.54,27.24,30.10,4.73,26.18,1010.33,2033.99,3246.07,3166.10,3437.29,350.11,345.02,5.32,0000 0000 0000 0000 000000
2015-04-25 04:19:55,0.06,0.51,0.00,23.54,27.22,30.11,4.69,26.27,1010.29,2033.99,3245.16,3165.70,3436.80,350.13,345.08,5.35,0000 0000 0000 0000 000000
2015-04-25 04:24:56,0.06,0.52,0.00,23.56,27.22,30.08,4.79,26.26,1010.29,2033.99,3244.34,3165.02,3436.05,349.91,344.94,5.38,0000 0000 0000 0000 000000
2015-04-25 04:29:58,0.09,0.52,0.00,23.56,27.22,30.08,4.65,26.26,1010.28,2033.99,3243.32,3164.32,3435.35,349.63,344.50,5.41,0000 0000 0000 0000 000000
2015-04-25 04:34:59,0.05,0.52,0.00,23.56,27.22,30.09,4.81,26.29,1010.27,2033.99,3242.25,3163.82,3434.76,350.46,345.31,5.44,0000 0000 0000 0000 000000
2015-04-25 04:40:00,0.07,0.52,0.00,23.59,27.22,30.06,4.80,26.33,1010.28,2033.99,3241.18,3163.04,3433.97,350.48,345.37,5.47,0000 0000 0000 0000 000000
2015-04-25 04:45:01,0.09,0.53,0.00,23.60,27.21,30.06,4.72,26.28,1010.27,2033.99,3240.25,3162.35,3433.12,349.83,344.54,5.50,0000 0000 0000 0000 000000
2015-04-25 04:50:02,0.06,0.53,0.00,23.60,27.20,30.06,4.79,26.32,1010.28,2033.99,3239.34,3161.86,3432.58,350.18,345.00,5.53,0000 0000 0000 0000 000000
2015-04-25 04:55:04,0.07,0.53,0.00,23.61,27.20,30.07,4.76,26.29,1010.28,2033.99,3238.40,3161.06,3431.95,350.35,345.03,5.56,0000 0000 0000 0000 000000
2015-04-25 05:00:05,0.08,0.53,0.00,23.63,27.20,30.04,4.83,26.23,1010.27,2034.00,3237.41,3160.56,3431.12,350.38,345.11,5.59,0000 0000 0000 0000 000000
2015-04-25 05:05:06,0.06,0.53,0.00,23.63,27.20,30.04,4.72,26.24,1010.26,2034.00,3236.34,3159.98,3430.41,349.89,344.55,5.62,0000 0000 0000 0000 000000
2015-04-25 05:10:07,0.07,0.54,0.00,23.63,27.20,30.04,4.77,26.19,1010.07,2034.00,3235.50,3159.19,3429.84,350.06,344.68,5.65,0000 0000 0000 0000 000000
2015-04-25 05:15:08,0.08,0.54,0.00,23.65,27.20,30.03,4.71,26.25,1009.95,2034.00,3234.47,3158.63,3429.05,350.25,344.76,5.68,0000 0000 0000 0000 000000
2015-04-25 05:20:09,0.06,0.54,0.00,23.65,27.20,30.03,4.77,26.19,1009.81,2034.00,3233.49,3157.98,3428.32,350.30,344.89,5.70,0000 0000 0000 0000 000000
2015-04-25 05:25:10,0.09,0.54,0.00,23.65,27.20,30.05,4.76,26.23,1009.83,2034.00,3232.50,3157.23,3427.63,350.39,344.86,5.73,0000 0000 0000 0000 000000
2015-04-25 05:30:12,0.06,0.55,0.00,23.66,27.20,30.01,4.71,26.21,1009.95,2034.00,3231.56,3156.70,3426.95,350.18,344.82,5.76,0000 0000 0000 0000 000000
2015-04-25 05:35:13,0.07,0.55,0.00,23.67,27.20,30.00,4.74,26.27,1009.88,2034.00,3230.53,3156.00,3426.15,350.20,344.90,5.79,0000 0000 0000 0000 000000
2015-04-25 05:40:14,0.10,0.55,0.00,23.66,27.20,30.01,4.71,26.22,1009.97,2034.00,3229.44,3155.19,3425.33,350.01,344.65,5.82,0000 0000 0000 0000 000000
2015-04-25 05:45:16,0.02,0.55,0.00,23.68,27.20,30.01,4.73,26.16,1009.99,2034.01,3228.71,3154.93,3424.93,349.89,344.75,5.85,0000 0000 0000 0000 000000
2015-04-25 05:50:17,0.09,0.55,0.00,23.70,27.20,29.98,4.70,26.11,1009.89,2034.00,3227.77,3154.11,3424.11,350.26,344.83,5.88,0000 0000 0000 0000 000000
2015-04-25 05:55:18,0.08,0.56,0.00,23.69,27.20,29.98,4.70,26.15,1009.89,2034.00,3226.77,3153.62,3423.49,350.17,344.75,5.91,0000 0000 0000 0000 000000
2015-04-25 06:00:19,0.05,0.56,0.00,23.70,27.20,29.98,4.71,26.20,1009.91,2034.00,3225.85,3153.01,3422.82,349.55,344.20,5.94,0000 0000 0000 0000 000000
2015-04-25 06:05:20,0.08,0.56,0.00,23.73,27.20,29.93,4.72,26.10,1009.91,2034.00,3224.92,3152.26,3422.04,350.19,344.81,5.97,0000 0000 0000 0000 000000
2015-04-25 06:10:22,0.06,0.56,0.00,23.74,27.20,29.95,4.72,26.23,1009.83,2034.00,3224.02,3151.84,3421.38,349.46,344.26,6.00,0000 0000 0000 0000 000000
2015-04-25 06:15:23,0.07,0.57,0.00,23.73,27.20,29.91,4.78,26.07,1009.80,2034.00,3223.10,3151.06,3420.80,350.61,345.26,6.03,0000 0000 0000 0000 000000
2015-04-25 06:20:24,0.08,0.57,0.00,23.74,27.20,29.92,4.75,26.32,1009.79,2034.00,3222.15,3150.45,3420.03,350.19,344.68,6.06,0000 0000 0000 0000 000000
2015-04-25 06:25:25,0.05,0.57,0.00,23.75,27.20,29.92,4.78,26.25,1009.80,2034.00,3221.21,3149.97,3419.27,350.31,345.03,6.09,0000 0000 0000 0000 000000
2015-04-25 06:30:26,0.08,0.57,0.00,23.75,27.20,29.92,4.73,26.11,1009.80,2034.00,3220.39,3149.24,3418.74,349.81,344.39,6.12,0000 0000 0000 0000 000000
2015-04-25 06:35:27,0.06,0.57,0.00,23.75,27.20,29.90,4.73,26.13,1009.85,2034.00,3219.37,3148.71,3417.98,350.17,344.67,6.14,0000 0000 0000 0000 000000
2015-04-25 06:40:28,0.08,0.58,0.00,23.77,27.21,29.89,4.69,26.20,1009.85,2033.99,3218.25,3147.99,3417.12,349.41,343.75,6.17,0000 0000 0000 0000 000000
2015-04-25 06:45:29,0.08,0.58,0.00,23.77,27.22,29.91,4.79,26.19,1009.84,2033.99,3217.43,3147.29,3416.66,350.41,344.96,6.20,0000 0000 0000 0000 000000
2015-04-25 06:50:30,0.04,0.58,0.00,23.77,27.22,29.90,4.67,26.14,1010.04,2033.99,3216.60,3146.85,3416.00,349.76,344.19,6.23,0000 0000 0000 0000 000000
2015-04-25 06:55:31,0.08,0.58,0.00,23.79,27.22,29.90,4.77,26.15,1010.15,2033.99,3215.78,3146.07,3415.27,350.11,344.71,6.26,0000 0000 0000 0000 000000
2015-04-25 07:00:33,0.07,0.58,0.00,23.81,27.22,29.90,4.78,26.18,1010.18,2033.99,3214.86,3145.65,3414.77,349.88,344.40,6.29,0000 0000 0000 0000 000000
2015-04-25 07:05:34,0.04,0.59,0.00,23.81,27.22,29.88,4.74,26.20,1010.13,2033.99,3214.01,3145.03,3414.04,349.94,344.48,6.32,0000 0000 0000 0000 000000
2015-04-25 07:10:36,0.08,0.59,0.00,23.80,27.22,29.88,4.75,26.25,1009.89,2033.99,3213.10,3144.50,3413.46,349.91,344.27,6.35,0000 0000 0000 0000 000000
2015-04-25 07:15:37,0.05,0.59,0.00,23.82,27.23,29.89,4.71,26.16,1009.92,2033.99,3212.23,3143.94,3412.84,349.42,343.87,6.38,0000 0000 0000 0000 000000
2015-04-25 07:20:38,0.08,0.59,0.00,23.85,27.24,29.88,4.78,26.35,1009.83,2033.99,3211.24,3143.15,3412.07,350.24,344.63,6.41,0000 0000 0000 0000 000000
2015-04-25 07:25:39,0.07,0.59,0.00,23.85,27.25,29.88,4.73,26.13,1009.80,2033.99,3210.28,3142.73,3411.48,350.30,344.40,6.44,0000 0000 0000 0000 000000
2015-04-25 07:30:41,0.07,0.60,0.00,23.85,27.25,29.88,4.77,26.18,1009.79,2033.98,3209.23,3141.99,3410.72,350.66,344.95,6.47,0000 0000 0000 0000 000000
2015-04-25 07:35:42,0.08,0.60,0.00,23.87,27.25,29.87,4.78,26.24,1009.80,2033.99,3208.22,3141.14,3409.97,350.30,344.68,6.50,0000 0000 0000 0000 000000
2015-04-25 07:40:43,0.07,0.60,0.00,23.87,27.25,29.88,4.70,26.18,1009.80,2033.98,3207.15,3140.67,3409.14,349.83,344.11,6.53,0000 0000 0000 0000 000000
2015-04-25 07:45:45,0.07,0.60,0.00,23.88,27.25,29.86,4.69,26.26,1009.80,2033.98,3206.25,3140.00,3408.61,350.20,344.53,6.55,0000 0000 0000 0000 000000
2015-04-25 07:50:46,0.08,0.61,0.00,23.91,27.26,29.88,4.70,26.21,1009.79,2033.98,3205.23,3139.19,3407.88,350.07,344.26,6.58,0000 0000 0000 0000 000000
2015-04-25 07:55:47,0.07,0.61,0.00,23.94,27.27,29.88,4.65,26.12,1009.80,2033.98,3204.23,3138.61,3407.05,349.39,343.66,6.61,0000 0000 0000 0000 000000
2015-04-25 08:00:48,0.07,0.61,0.00,23.94,27.27,29.88,4.64,26.13,1009.79,2033.97,3203.19,3137.93,3406.23,349.54,343.90,6.64,0000 0000 0000 0000 000000
2015-04-25 08:05:49,0.09,0.61,0.00,23.95,27.27,29.88,4.67,26.14,1009.78,2033.98,3202.17,3137.12,3405.56,349.43,344.03,6.67,0000 0000 0000 0000 000000
2015-04-25 08:10:51,0.07,0.61,0.00,23.96,27.27,29.88,4.66,26.13,1009.79,2033.97,3201.21,3136.61,3404.86,349.44,343.68,6.70,0000 0000 0000 0000 000000
2015-04-25 08:15:52,0.06,0.62,0.00,23.97,27.28,29.88,4.78,26.05,1009.80,2033.96,3200.22,3135.91,3404.04,350.89,345.11,6.73,0000 0000 0000 0000 000000
2015-04-25 08:20:53,0.08,0.62,0.00,23.95,27.29,29.91,4.74,26.11,1009.98,2033.94,3199.18,3135.09,3403.23,350.44,344.69,6.76,0000 0000 0000 0000 000000
2015-04-25 08:25:54,0.06,0.62,0.00,23.93,27.30,29.90,4.74,26.07,1009.94,2033.96,3198.31,3134.79,3402.66,349.81,343.90,6.79,0000 0000 0000 0000 000000
2015-04-25 08:30:55,0.06,0.62,0.00,23.95,27.30,29.91,4.76,26.15,1009.84,2033.95,3197.28,3134.04,3401.92,350.56,344.76,6.82,0000 0000 0000 0000 000000
2015-04-25 08:35:57,0.08,0.63,0.00,23.96,27.30,29.92,4.71,26.11,1009.85,2033.89,3196.25,3133.30,3401.03,350.33,344.58,6.85,0000 0000 0000 0000 000000
2015-04-25 08:40:58,0.07,0.63,0.00,23.95,27.30,29.93,4.69,26.04,1009.89,2033.87,3195.17,3132.83,3400.21,349.84,344.16,6.88,0000 0000 0000 0000 000000
2015-04-25 08:45:59,0.07,0.63,0.00,23.96,27.31,29.92,4.71,26.12,1010.06,2033.95,3194.37,3132.06,3399.80,350.35,344.66,6.91,0000 0000 0000 0000 000000
2015-04-25 08:51:00,0.08,0.63,0.00,23.97,27.32,29.93,4.74,26.11,1010.00,2033.91,3193.35,3131.38,3399.02,350.05,344.23,6.93,0000 0000 0000 0000 000000
2015-04-25 08:56:01,0.07,0.64,0.00,23.97,27.32,29.94,4.75,26.14,1009.86,2033.82,3192.31,3130.62,3398.19,350.14,344.36,6.96,0000 0000 0000 0000 000000
2015-04-25 09:01:03,0.06,0.64,0.00,23.97,27.32,29.94,4.71,26.04,1009.82,2033.67,3190.99,3129.91,3397.14,350.59,344.85,6.99,0000 0000 0000 0000 000000
2015-04-25 09:06:04,0.04,0.64,0.00,23.97,27.32,29.96,4.71,26.13,1009.80,2033.47,3189.99,3129.11,3396.44,349.89,344.25,7.02,0000 0000 0000 0000 000000
2015-04-25 09:11:05,0.11,0.64,0.00,24.00,27.32,29.94,4.69,26.09,1009.80,2033.72,3189.11,3128.65,3395.92,350.14,344.27,7.05,0000 0000 0000 0000 000000
2015-04-25 09:16:06,0.01,0.64,0.00,24.00,27.33,29.96,4.78,26.19,1009.89,2033.45,3188.15,3127.98,3395.08,350.48,344.78,7.08,0000 0000 0000 0000 000000
2015-04-25 09:21:08,0.11,0.65,0.00,24.00,27.34,29.96,4.73,26.11,1009.90,2033.55,3187.24,3127.26,3394.44,349.85,344.14,7.11,0000 0000 0000 0000 000000
2015-04-25 09:26:09,0.03,0.65,0.00,24.01,27.34,29.96,4.73,26.11,1009.83,2033.28,3186.28,3126.71,3393.74,349.72,343.99,7.14,0000 0000 0000 0000 000000
2015-04-25 09:31:10,0.08,0.65,0.00,24.03,27.35,29.96,4.72,26.24,1009.80,2033.26,3185.31,3126.01,3393.02,350.04,344.21,7.17,0000 0000 0000 0000 000000
2015-04-25 09:36:12,0.06,0.65,0.00,24.05,27.35,29.95,4.72,26.23,1009.84,2033.22,3184.46,3125.38,3392.26,350.18,344.13,7.20,0000 0000 0000 0000 000000
2015-04-25 09:41:13,0.03,0.65,0.00,24.04,27.35,29.95,4.75,26.13,1009.83,2033.17,3183.67,3124.96,3391.80,350.32,344.47,7.23,0000 0000 0000 0000 000000
2015-04-25 09:46:14,0.11,0.65,0.00,24.04,27.35,29.94,4.71,26.08,1009.86,2033.26,3182.72,3124.20,3391.05,349.97,344.09,7.26,0000 0000 0000 0000 000000
2015-04-25 09:51:16,0.03,0.66,0.00,24.05,27.35,29.94,4.73,26.17,1009.87,2033.16,3181.83,3123.79,3390.57,349.64,343.70,7.29,0000 0000 0000 0000 000000
2015-04-25 09:56:17,0.06,0.66,0.00,24.05,27.35,29.95,4.76,26.13,1009.81,2033.08,3180.78,3123.02,3389.84,349.99,344.14,7.32,0000 0000 0000 0000 000000
2015-04-25 10:01:18,0.08,0.66,0.00,24.05,27.35,29.94,4.74,26.21,1009.84,2033.03,3179.86,3122.25,3389.04,349.52,343.62,7.35,0000 0000 0000 0000 000000
2015-04-25 10:06:19,0.05,0.66,0.00,24.05,27.35,29.93,4.81,26.23,1009.82,2033.04,3178.97,3121.83,3388.36,350.68,344.77,7.37,0000 0000 0000 0000 000000
2015-04-25 10:11:20,0.06,0.66,0.00,24.06,27.36,29.92,4.79,26.16,1009.84,2033.01,3178.05,3121.07,3387.82,350.41,344.59,7.40,0000 0000 0000 0000 000000
2015-04-25 10:16:22,0.07,0.67,0.00,24.07,27.37,29.91,4.64,26.13,1010.17,2033.04,3177.10,3120.62,3387.04,349.20,343.34,7.43,0000 0000 0000 0000 000000
2015-04-25 10:21:23,0.07,0.67,0.00,24.05,27.37,29.91,4.68,26.13,1010.17,2033.05,3176.26,3119.99,3386.47,349.37,343.65,7.46,0000 0000 0000 0000 000000
2015-04-25 10:26:24,0.08,0.67,0.00,24.04,27.37,29.91,4.56,26.13,1009.89,2033.08,3175.27,3119.29,3385.75,349.37,343.59,7.49,0000 0000 0000 0000 000000
2015-04-25 10:31:25,0.07,0.67,0.00,24.05,27.37,29.92,4.75,26.03,1009.99,2033.08,3174.15,3118.74,3385.02,350.68,344.91,7.52,0000 0000 0000 0000 000000
2015-04-25 10:36:26,0.07,0.68,0.00,24.03,27.37,29.93,4.70,26.16,1010.04,2033.05,3173.06,3117.92,3384.18,349.80,343.94,7.55,0000 0000 0000 0000 000000
2015-04-25 10:41:28,0.08,0.68,0.00,24.01,27.37,29.95,4.75,26.10,1009.95,2033.02,3172.05,3117.10,3383.54,350.15,344.38,7.58,0000 0000 0000 0000 000000
2015-04-25 10:46:29,0.07,0.68,0.00,23.98,27.37,29.97,4.72,26.14,1010.22,2033.02,3171.21,3116.66,3382.85,350.41,344.85,7.61,0000 0000 0000 0000 000000
2015-04-25 10:51:30,0.06,0.68,0.00,23.97,27.37,30.01,4.66,26.18,1010.10,2033.02,3170.19,3116.02,3382.06,349.78,344.32,7.64,0000 0000 0000 0000 000000
2015-04-25 10:56:31,0.09,0.68,0.00,23.96,27.38,30.00,4.79,26.18,1010.04,2033.01,3169.30,3115.39,3381.44,350.62,344.94,7.67,0000 0000 0000 0000 000000
2015-04-25 11:01:33,0.05,0.69,0.00,23.92,27.37,30.04,4.72,26.16,1010.24,2033.00,3168.28,3114.88,3380.88,350.52,345.03,7.70,0000 0000 0000 0000 000000
2015-04-25 11:06:34,0.08,0.69,0.00,23.90,27.38,30.04,4.72,26.10,1010.02,2033.00,3167.40,3114.07,3380.07,349.85,344.13,7.73,0000 0000 0000 0000 000000
2015-04-25 11:11:35,0.08,0.69,0.00,23.90,27.37,30.05,4.69,26.22,1010.09,2033.01,3166.50,3113.67,3379.44,349.77,344.03,7.76,0000 0000 0000 0000 000000
2015-04-25 11:16:36,0.04,0.69,0.00,23.89,27.37,30.08,4.66,26.17,1009.93,2033.02,3165.67,3113.02,3378.90,350.04,344.44,7.78,0000 0000 0000 0000 000000
2015-04-25 11:21:38,0.08,0.69,0.00,23.87,27.37,30.08,4.72,26.17,1009.81,2033.01,3164.78,3112.39,3378.08,349.78,344.13,7.81,0000 0000 0000 0000 000000
2015-04-25 11:26:39,0.06,0.70,0.00,23.87,27.37,30.07,4.75,26.18,1009.82,2033.02,3163.81,3111.90,3377.41,349.89,344.27,7.84,0000 0000 0000 0000 000000
2015-04-25 11:31:40,0.08,0.70,0.00,23.87,27.37,30.10,4.75,26.22,1009.87,2033.01,3162.71,3111.08,3376.78,349.89,344.47,7.87,0000 0000 0000 0000 000000
2015-04-25 11:36:41,0.08,0.70,0.00,23.84,27.37,30.11,4.71,26.16,1010.03,2033.01,3161.66,3110.51,3376.01,349.33,343.88,7.90,0000 0000 0000 0000 000000
2015-04-25 11:41:43,0.05,0.70,0.00,23.80,27.37,30.11,4.73,26.23,1010.11,2033.00,3160.85,3109.98,3375.27,350.28,344.81,7.93,0000 0000 0000 0000 000000
2015-04-25 11:46:44,0.07,0.71,0.00,23.79,27.37,30.13,4.83,26.15,1010.10,2033.01,3159.94,3109.23,3374.78,350.66,345.36,7.96,0000 0000 0000 0000 000000
2015-04-25 11:51:45,0.05,0.71,0.00,23.76,27.35,30.15,4.72,26.20,1010.00,2033.02,3158.97,3108.90,3374.04,349.72,344.24,7.99,0000 0000 0000 0000 000000
2015-04-25 11:56:46,0.08,0.71,0.00,23.72,27.35,30.20,4.72,26.03,1010.07,2033.03,3158.09,3108.11,3373.43,350.24,344.81,8.02,0000 0000 0000 0000 000000
2015-04-25 12:01:48,0.04,0.71,0.00,23.68,27.35,30.21,4.74,26.17,1009.99,2033.04,3157.25,3107.83,3372.97,349.95,344.52,8.05,0000 0000 0000 0000 000000
2015-04-25 12:06:49,0.08,0.71,0.00,23.67,27.35,30.22,4.73,26.19,1009.88,2033.02,3156.31,3107.05,3372.17,349.75,344.37,8.08,0000 0000 0000 0000 000000
2015-04-25 12:11:50,0.08,0.71,0.00,23.63,27.34,30.22,4.78,26.22,1009.96,2033.02,3155.48,3106.48,3371.53,349.85,344.52,8.11,0000 0000 0000 0000 000000
2015-04-25 12:16:51,0.04,0.72,0.00,23.59,27.33,30.23,4.79,26.25,1009.80,2033.05,3154.55,3105.99,3371.00,349.88,344.65,8.14,0000 0000 0000 0000 000000
2015-04-25 12:21:53,0.08,0.72,0.00,23.57,27.32,30.24,4.70,26.22,1009.80,2033.04,3153.79,3105.30,3370.31,349.89,344.51,8.17,0000 0000 0000 0000 000000
2015-04-25 12:26:54,0.02,0.72,0.00,23.56,27.32,30.23,4.79,26.22,1009.79,2033.04,3152.99,3104.99,3369.92,349.72,344.41,8.19,0000 0000 0000 0000 000000
2015-04-25 12:31:55,0.10,0.72,0.00,23.52,27.31,30.23,4.77,26.15,1009.79,2033.14,3152.13,3104.40,3369.18,350.23,345.01,8.22,0000 0000 0000 0000 000000
2015-04-25 12:36:57,0.06,0.73,0.00,23.50,27.30,30.21,4.75,26.27,1009.79,2033.21,3151.30,3103.92,3368.81,349.99,344.77,8.25,0000 0000 0000 0000 000000
2015-04-25 12:41:58,0.08,0.73,0.00,23.49,27.30,30.21,4.75,26.17,1009.78,2033.21,3150.39,3103.15,3368.05,349.84,344.62,8.28,0000 0000 0000 0000 000000
2015-04-25 12:46:59,0.05,0.73,0.00,23.44,27.29,30.20,4.75,26.19,1009.80,2033.28,3149.60,3102.93,3367.60,350.18,345.01,8.31,0000 0000 0000 0000 000000
2015-04-25 12:52:01,0.13,0.73,0.00,23.42,27.27,30.20,4.70,26.08,1009.80,2033.56,3148.88,3102.18,3367.01,349.73,344.44,8.34,0000 0000 0000 0000 000000
2015-04-25 12:57:02,0.06,0.74,0.00,23.41,27.27,30.19,4.78,26.18,1009.79,2033.70,3148.03,3101.93,3366.49,349.90,344.77,8.37,0000 0000 0000 0000 000000
2015-04-25 13:02:03,0.09,0.74,0.00,23.37,27.26,30.19,4.79,26.19,1009.78,2033.72,3147.14,3101.17,3365.99,349.83,344.66,8.40,0000 0000 0000 0000 000000
2015-04-25 13:07:04,0.07,0.74,0.00,23.36,27.25,30.17,4.76,26.18,1009.78,2033.89,3146.39,3100.93,3365.32,350.71,345.54,8.43,0000 0000 0000 0000 000000